Wind_Speed
26 25 23 22 21 21 21 21 21 21 22 23 23 24 25 26 27 28 27 27 27 26 26 27 28 29 28 28 28 28 28 27 26 27 27 27 27 27 28 29 31 32 34
28 26 25 24 24 22 21 22 23 24 26 27 28 28 28 28 29 31 32 30 29 29 29 30 31 31 30 30 31 33 31 30 29 30 30 30 29 30 31 32 34 36 38
30 28 27 26 26 25 25 26 26 26 27 29 30 31 32 31 32 33 34 33 32 32 32 33 33 33 33 33 35 35 33 32 31 31 31 32 32 34 35 36 37 39 41
31 31 29 29 28 28 28 30 30 29 29 30 31 33 34 34 33 32 32 32 32 33 34 35 34 34 34 34 35 37 35 34 33 33 34 36 37 39 39 40 41 43 44
32 31 31 30 30 31 31 32 31 31 32 32 34 37 36 34 33 34 33 34 34 34 34 34 34 35 35 36 36 36 37 36 35 36 38 39 41 42 43 43 45 46 48
32 32 31 31 32 32 33 33 33 33 34 34 35 37 37 37 35 34 34 34 34 35 37 37 37 36 36 36 36 37 38 38 40 40 41 42 43 44 45 47 48 50 52
33 33 33 33 33 34 35 36 36 35 35 36 37 38 38 37 37 37 37 38 37 37 37 37 36 35 36 37 38 39 40 41 42 43 43 44 46 47 49 51 52 54 55
34 34 35 35 36 36 37 38 38 37 37 37 38 38 38 38 38 38 38 37 37 36 37 37 38 38 38 39 40 41 43 44 45 46 46 48 50 52 53 55 56 57 58
35 35 36 37 38 38 39 38 38 38 38 38 39 40 41 40 39 39 40 40 38 38 38 38 40 41 42 43 43 44 46 47 47 48 50 52 54 56 57 59 60 61 61
36 37 37 38 39 40 41 41 41 41 42 42 42 42 41 39 39 40 40 40 39 38 38 40 42 43 45 46 47 49 49 50 52 53 55 57 59 60 61 62 63 64 65
36 38 38 39 39 40 41 42 43 44 43 42 41 42 42 40 41 40 40 40 40 41 42 42 44 46 48 49 51 52 54 55 56 58 60 61 62 63 64 65 65 65 65
37 36 37 38 38 39 39 40 41 41 41 41 41 41 40 40 41 41 41 41 42 43 43 46 48 49 51 52 54 55 57 59 60 62 63 63 64 64 64 65 64 64 63
36 36 36 37 37 37 38 37 38 38 39 40 40 40 40 41 42 42 41 42 43 45 47 49 51 52 54 55 56 58 59 61 62 63 63 63 64 64 64 64 63 62 62
32 33 34 34 34 35 35 35 36 37 37 39 39 38 39 41 41 42 42 43 45 47 49 51 53 53 55 56 58 58 59 60 61 62 62 61 61 61 61 60 59 58 58
30 30 32 32 33 34 34 34 35 35 36 37 37 38 39 40 41 42 43 45 46 49 51 52 53 53 54 56 57 59 59 60 60 60 60 60 60 59 58 56 55 54 52
28 28 29 30 31 31 31 31 32 32 33 33 35 36 38 39 40 42 44 45 47 49 50 51 52 52 54 55 56 57 58 58 58 58 57 56 55 54 52 50 48 47 45
27 26 26 26 26 27 29 29 30 30 30 32 34 35 37 39 41 42 43 44 45 47 48 49 51 52 53 54 54 55 55 54 53 52 50 49 47 45 43 42 40 38 37
26 26 25 25 25 25 26 27 28 29 30 32 33 35 36 37 38 39 41 42 44 45 46 48 49 50 51 51 52 51 50 49 47 45 43 41 39 36 34 32 31 29 27
22 23 24 24 25 26 26 26 27 28 29 30 32 33 34 35 36 37 38 39 41 42 44 45 46 47 47 48 47 46 44 42 40 37 34 31 29 26 24 23 21 20 19
22 23 23 23 24 24 24 25 26 27 28 29 30 31 32 33 33 35 36 37 39 40 41 42 43 43 42 41 40 38 36 33 30 27 24 22 20 18 17 16 15 15 15
20 21 21 21 21 21 22 23 25 26 26 27 27 28 29 30 30 32 33 34 35 36 37 38 37 37 36 34 32 29 27 24 21 19 17 15 14 13 12 12 11 12 13
18 18 19 20 20 21 21 22 23 23 23 24 25 26 27 27 28 29 31 32 32 33 33 33 33 32 30 28 25 23 20 18 16 14 13 11 11 10 10 10 10 11 12
17 18 19 19 20 20 20 21 21 21 22 23 23 24 25 26 26 28 29 29 29 30 30 29 28 26 25 23 21 18 16 14 13 11 10 9 9 10 10 10 11 11 12
15 16 17 17 18 19 19 19 19 20 20 22 22 23 23 23 25 26 26 26 26 26 25 24 22 21 20 18 16 14 12 11 10 10 10 10 11 11 11 12 12 12 13
14 15 15 16 16 17 17 17 18 19 20 21 21 21 21 22 23 23 22 22 22 22 21 19 18 17 15 14 12 11 11 10 10 11 11 12 12 12 13 13 13 13 14
13 13 14 14 15 15 16 16 17 18 19 19 19 20 20 20 20 20 19 19 19 18 18 17 16 14 12 11 10 10 10 10 11 11 12 12 13 13 13 14 14 15 15
Wind_Direction
232 232 233 234 237 242 243 245 247 252 255 255 257 260 260 260 260 264 263 265 263 264 268 270 271 273 276 278 277 280 281 282 282 283 284 284 284 285 283 282 280 281 282
233 231 231 235 239 244 248 250 251 254 256 258 257 258 261 262 265 268 266 267 266 267 270 271 273 273 276 278 279 279 280 282 283 283 284 285 285 286 284 284 283 283 283
232 231 233 236 239 243 246 249 253 256 259 261 261 263 263 267 266 269 267 269 270 270 273 273 275 277 279 282 282 282 283 282 283 285 286 286 287 286 285 286 286 285 284
233 234 236 238 241 245 248 251 254 258 262 264 264 264 266 269 273 276 277 279 280 278 277 278 278 280 280 282 284 284 283 286 286 287 287 287 288 289 286 286 286 286 285
235 237 239 241 244 247 249 253 255 259 263 265 268 268 269 273 276 280 281 282 283 284 288 287 286 284 281 280 285 285 286 287 287 288 288 288 288 288 288 287 287 287 287
237 240 242 244 247 250 253 257 261 262 265 270 274 273 275 276 280 286 288 288 288 288 289 287 287 287 284 285 288 289 287 287 287 289 290 289 288 287 287 287 287 288 288
239 243 246 248 251 253 258 262 264 266 270 273 275 275 276 281 285 288 290 289 289 290 289 289 289 289 289 289 289 288 288 288 288 289 290 290 289 288 287 287 287 288 288
244 246 248 250 252 256 260 264 266 269 271 272 275 278 280 285 288 291 292 293 292 290 292 290 291 292 290 290 290 289 289 289 289 289 289 289 289 289 288 288 288 288 288
248 250 252 254 256 258 261 264 267 270 271 274 276 280 283 285 288 290 292 292 292 292 292 291 291 290 290 290 290 290 290 289 289 289 290 290 290 289 289 289 288 288 288
252 254 257 258 259 260 262 265 266 268 270 273 276 280 282 285 288 290 292 293 293 291 290 290 290 290 290 290 290 289 290 290 289 290 291 291 291 290 289 289 289 289 288
255 256 258 259 260 262 264 266 268 269 271 274 276 279 282 284 287 289 290 289 290 290 289 290 290 291 291 291 291 291 290 290 290 290 291 291 291 290 289 289 289 289 289
261 263 263 262 263 265 266 268 269 271 274 276 279 280 281 284 286 287 289 289 290 290 289 290 291 291 291 291 291 291 290 290 291 292 292 291 290 290 290 290 289 289 289
264 266 267 267 268 267 268 269 271 273 276 278 279 279 280 282 285 287 288 288 289 290 290 291 291 291 291 291 291 291 291 291 291 291 291 290 290 289 289 289 289 289 289
270 269 267 268 269 268 270 271 272 274 277 278 278 278 280 281 282 283 285 287 289 290 290 290 290 291 291 290 291 291 291 291 292 292 291 291 291 290 290 290 290 290 291
274 273 271 270 268 268 269 271 273 274 274 275 276 279 280 282 283 285 287 288 289 290 290 291 291 291 291 292 293 293 293 293 293 292 292 292 291 291 291 290 290 291 292
277 278 276 273 270 271 272 274 275 276 277 276 278 280 281 283 285 286 288 289 290 291 292 293 293 293 294 295 295 295 295 295 294 294 294 294 293 292 292 292 291 291 292
274 274 273 275 275 276 276 276 278 279 279 279 280 281 282 283 285 287 289 291 292 293 293 294 295 295 296 296 296 297 296 296 296 296 296 296 295 295 294 294 294 294 295
269 271 274 275 276 279 280 279 278 278 279 281 282 283 285 287 289 291 292 293 294 296 296 297 298 299 298 298 298 298 298 299 299 299 299 298 298 298 297 297 297 298 298
271 270 273 276 278 280 280 280 279 280 281 283 285 287 288 290 292 293 296 298 300 301 301 302 302 302 302 302 302 302 302 302 302 302 302 302 302 301 301 302 303 305 306
271 271 271 274 277 278 279 279 280 282 284 286 288 290 292 294 296 298 300 302 303 304 306 307 307 306 307 307 308 308 309 310 310 311 310 310 309 309 311 312 313 314 318
270 271 271 273 276 278 280 281 283 284 287 289 292 294 296 298 300 302 304 306 307 308 310 311 312 313 314 315 316 317 317 318 319 320 320 320 321 322 324 324 327 331 335
270 273 275 277 279 282 284 285 286 288 290 292 294 297 299 301 304 306 308 310 312 313 313 314 316 318 321 322 323 325 327 328 329 330 331 333 337 341 343 345 347 349 349
276 279 281 282 283 285 287 289 290 291 292 294 297 299 302 305 307 309 312 314 315 317 318 319 320 322 325 328 330 333 335 338 341 346 351 358 3 5 6 5 4 4 2
280 283 285 285 287 289 291 294 294 295 297 298 300 301 304 307 310 313 315 317 320 323 325 326 327 329 332 336 341 346 352 359 7 15 20 21 22 22 21 19 17 14 10
287 288 291 293 294 295 296 297 297 298 300 301 302 304 306 310 314 317 319 323 327 329 331 333 336 339 343 346 352 360 9 20 29 31 32 32 31 28 26 23 20 16 12
294 295 296 298 300 300 299 299 300 301 302 303 304 306 308 312 316 319 324 328 331 334 336 339 343 349 355 3 10 19 27 32 35 37 37 34 31 29 27 24 21 16 13
Height
5846 5849 5851 5854 5856 5857 5858 5859 5860 5861 5861 5861 5862 5862 5861 5861 5860 5859 5857 5856 5855 5855 5854 5854 5853 5852 5851 5850 5849 5847 5846 5844 5843 5842 5841 5839 5838 5836 5835 5833 5832 5830 5828
5840 5844 5847 5849 5851 5852 5853 5854 5855 5856 5857 5856 5856 5856 5854 5853 5854 5853 5851 5850 5848 5848 5847 5846 5846 5845 5844 5843 5841 5839 5838 5836 5836 5835 5834 5832 5831 5829 5827 5826 5824 5821 5819
5835 5839 5841 5843 5845 5847 5848 5849 5849 5850 5850 5849 5849 5848 5847 5846 5846 5845 5844 5842 5841 5840 5840 5839 5838 5838 5837 5835 5834 5832 5830 5829 5828 5827 5826 5824 5823 5821 5819 5817 5815 5812 5810
5830 5833 5836 5838 5840 5841 5842 5843 5843 5843 5843 5842 5841 5841 5839 5838 5838 5838 5837 5836 5834 5833 5832 5831 5830 5830 5829 5828 5826 5823 5821 5820 5819 5818 5817 5816 5814 5812 5809 5807 5804 5802 5799
5825 5828 5830 5833 5834 5835 5836 5837 5837 5836 5836 5835 5834 5833 5832 5831 5831 5830 5829 5828 5827 5826 5825 5822 5821 5820 5819 5819 5818 5816 5813 5812 5811 5810 5808 5806 5804 5801 5798 5796 5793 5790 5787
5820 5822 5824 5826 5828 5829 5829 5830 5830 5829 5828 5828 5827 5825 5825 5823 5823 5822 5821 5820 5819 5818 5817 5815 5814 5813 5812 5811 5809 5807 5805 5804 5802 5800 5798 5795 5793 5790 5787 5784 5781 5777 5774
5814 5816 5818 5820 5821 5822 5822 5822 5822 5821 5821 5821 5820 5819 5817 5816 5815 5815 5813 5813 5811 5809 5808 5806 5805 5804 5803 5801 5800 5798 5796 5793 5791 5789 5787 5784 5781 5778 5775 5771 5768 5764 5760
5807 5809 5811 5812 5813 5814 5815 5815 5814 5814 5813 5813 5812 5811 5810 5808 5807 5806 5805 5803 5802 5801 5800 5798 5796 5795 5793 5791 5789 5787 5785 5782 5780 5777 5774 5771 5768 5765 5761 5758 5754 5750 5746
5801 5802 5803 5805 5806 5806 5806 5807 5806 5806 5805 5804 5803 5803 5802 5801 5799 5798 5797 5795 5794 5793 5791 5790 5788 5786 5784 5781 5779 5777 5774 5771 5768 5765 5761 5758 5754 5750 5746 5742 5738 5735 5731
5794 5795 5796 5797 5798 5798 5798 5798 5798 5797 5796 5795 5794 5793 5793 5792 5791 5789 5788 5787 5785 5784 5783 5781 5779 5776 5774 5771 5768 5765 5761 5758 5754 5751 5747 5743 5739 5734 5730 5725 5721 5717 5713
5786 5787 5788 5789 5789 5790 5790 5790 5789 5788 5787 5787 5785 5784 5784 5784 5782 5781 5779 5778 5776 5775 5773 5770 5768 5765 5762 5759 5756 5752 5748 5744 5740 5736 5731 5727 5722 5717 5713 5708 5703 5699 5695
5778 5779 5780 5781 5781 5781 5781 5781 5780 5779 5779 5778 5777 5776 5775 5774 5772 5771 5770 5768 5766 5764 5762 5759 5757 5753 5750 5746 5742 5738 5734 5729 5724 5719 5714 5709 5704 5699 5694 5690 5685 5681 5677
5770 5771 5771 5772 5772 5772 5772 5772 5772 5771 5770 5769 5768 5768 5766 5764 5763 5761 5759 5757 5755 5753 5750 5747 5744 5740 5736 5732 5727 5723 5718 5713 5708 5702 5697 5692 5687 5682 5677 5672 5668 5664 5660
5762 5763 5763 5763 5764 5764 5764 5763 5763 5763 5762 5761 5760 5759 5757 5756 5754 5751 5749 5747 5744 5741 5738 5735 5731 5726 5722 5717 5713 5707 5702 5697 5691 5686 5680 5675 5670 5665 5660 5656 5652 5648 5644
5755 5755 5755 5755 5756 5755 5755 5755 5755 5754 5753 5752 5751 5750 5748 5746 5744 5741 5738 5735 5732 5729 5726 5722 5717 5713 5708 5703 5698 5693 5687 5681 5675 5669 5663 5658 5653 5648 5644 5640 5637 5633 5630
5748 5748 5748 5748 5747 5747 5747 5747 5746 5745 5744 5743 5741 5740 5738 5736 5734 5731 5728 5725 5721 5718 5714 5709 5705 5700 5695 5689 5683 5677 5671 5665 5659 5653 5647 5641 5637 5632 5628 5625 5622 5620 5617
5741 5741 5740 5740 5740 5739 5739 5738 5737 5736 5735 5733 5732 5731 5729 5726 5724 5721 5718 5714 5711 5707 5702 5697 5692 5687 5681 5675 5669 5662 5656 5650 5644 5638 5632 5627 5623 5619 5616 5613 5611 5609 5606
5734 5734 5733 5733 5732 5731 5730 5730 5729 5728 5726 5725 5723 5721 5719 5717 5714 5711 5708 5704 5700 5696 5691 5686 5680 5674 5668 5662 5655 5649 5643 5637 5631 5626 5620 5616 5612 5609 5606 5604 5602 5600 5598
5726 5726 5726 5725 5725 5724 5723 5722 5721 5720 5718 5717 5715 5713 5711 5708 5705 5702 5698 5694 5690 5685 5680 5674 5668 5662 5656 5650 5643 5637 5631 5625 5620 5615 5611 5607 5604 5602 5599 5598 5596 5594 5593
5720 5720 5719 5719 5718 5717 5716 5715 5714 5712 5711 5709 5707 5705 5703 5700 5697 5693 5689 5685 5681 5676 5670 5664 5658 5652 5646 5639 5633 5627 5621 5616 5612 5608 5604 5601 5599 5597 5595 5594 5592 5591 5589
5714 5714 5713 5712 5712 5711 5710 5708 5707 5705 5704 5702 5700 5698 5695 5692 5689 5685 5682 5677 5673 5668 5662 5656 5650 5644 5637 5631 5625 5620 5615 5610 5606 5603 5600 5598 5596 5594 5593 5592 5590 5589 5587
5709 5708 5707 5707 5706 5704 5703 5702 5700 5699 5697 5695 5693 5691 5688 5685 5682 5679 5675 5670 5665 5660 5655 5649 5643 5637 5631 5626 5620 5615 5611 5607 5604 5601 5599 5597 5595 5593 5592 5591 5589 5587 5586
5703 5703 5702 5701 5699 5698 5697 5696 5694 5692 5691 5689 5687 5684 5682 5679 5676 5672 5668 5663 5659 5654 5648 5643 5638 5633 5627 5622 5618 5613 5609 5606 5603 5601 5599 5597 5595 5593 5592 5590 5589 5587 5585
5699 5698 5696 5695 5694 5693 5691 5690 5688 5687 5685 5683 5681 5678 5676 5673 5670 5666 5662 5658 5653 5649 5644 5639 5634 5629 5625 5620 5616 5613 5609 5607 5604 5602 5600 5598 5596 5594 5593 5591 5589 5587 5585
5694 5693 5692 5691 5689 5688 5686 5685 5683 5681 5679 5677 5675 5672 5670 5667 5664 5661 5657 5653 5649 5645 5641 5636 5632 5628 5623 5620 5616 5613 5610 5608 5605 5603 5601 5600 5598 5596 5594 5592 5590 5588 5586
5691 5690 5688 5687 5685 5684 5682 5680 5678 5676 5674 5672 5670 5667 5665 5662 5659 5656 5653 5650 5646 5642 5638 5634 5630 5626 5623 5619 5617 5614 5612 5610 5608 5606 5604 5602 5600 5598 5596 5594 5592 5589 5586